| time (UTC) | temp F | wind direction | speed MPH | gust MPH | rain 1hr in | rain 24hr in | rain mn in | humidity % | barometer mb |
| 20260506131556 | 57 | 197 | 5.0 | 21.0 | 0.00 | 0.00 | 0.00 | 95 | 1007.3 |
| 20260506131052 | 57 | 174 | 18.0 | 22.0 | 0.00 | 0.00 | 0.00 | 95 | 1007.6 |
| 20260506130549 | 56 | 198 | 7.0 | 22.0 | 0.00 | 0.00 | 0.00 | 96 | 1007.6 |
| 20260506130047 | 56 | 231 | 8.0 | 16.0 | 0.00 | 0.00 | 0.00 | 96 | 1007.4 |
| 20260506125545 | 56 | 193 | 10.0 | 24.0 | 0.00 | 0.00 | 0.00 | 96 | 1007.5 |
| 20260506125042 | 56 | 178 | 8.0 | 17.0 | 0.00 | 0.00 | 0.00 | 96 | 1007.4 |
| 20260506124540 | 56 | 183 | 10.0 | 17.0 | 0.00 | 0.00 | 0.00 | 96 | 1007.5 |
| 20260506124037 | 56 | 182 | 10.0 | 27.0 | 0.00 | 0.00 | 0.00 | 96 | 1007.4 |
| 20260506123535 | 56 | 192 | 7.0 | 21.0 | 0.00 | 0.00 | 0.00 | 95 | 1007.5 |
| 20260506123033 | 57 | 212 | 9.0 | 22.0 | 0.00 | 0.00 | 0.00 | 95 | 1007.6 |
| 20260506122529 | 57 | 196 | 7.0 | 30.0 | 0.00 | 0.00 | 0.00 | 95 | 1007.4 |
| 20260506122028 | 57 | 175 | 12.0 | 22.0 | 0.00 | 0.00 | 0.00 | 95 | 1007.6 |
| 20260506121525 | 57 | 187 | 6.0 | 20.0 | 0.00 | 0.00 | 0.00 | 95 | 1007.8 |
| 20260506121021 | 56 | 189 | 11.0 | 19.0 | 0.00 | 0.00 | 0.00 | 96 | 1007.8 |
| 20260506120519 | 56 | 206 | 10.0 | 26.0 | 0.00 | 0.00 | 0.00 | 96 | 1007.7 |
| 20260506120016 | 56 | 177 | 4.0 | 22.0 | 0.00 | 0.00 | 0.00 | 96 | 1007.9 |
| 20260506115514 | 56 | 194 | 7.0 | 20.0 | 0.00 | 0.00 | 0.00 | 96 | 1007.9 |
| 20260506115012 | 56 | 207 | 10.0 | 20.0 | 0.00 | 0.00 | 0.00 | 96 | 1007.8 |
| 20260506114509 | 56 | 191 | 8.0 | 26.0 | 0.00 | 0.00 | 0.00 | 96 | 1007.8 |
| 20260506114008 | 56 | 189 | 9.0 | 21.0 | 0.00 | 0.00 | 0.00 | 96 | 1007.7 |
| 20260506113505 | 56 | 214 | 7.0 | 17.0 | 0.00 | 0.00 | 0.00 | 96 | 1007.6 |
| 20260506113002 | 56 | 175 | 11.0 | 21.0 | 0.00 | 0.00 | 0.00 | 96 | 1007.6 |
| 20260506112459 | 56 | 202 | 8.0 | 19.0 | 0.00 | 0.00 | 0.00 | 97 | 1007.6 |
| 20260506111956 | 56 | 191 | 5.0 | 18.0 | 0.00 | 0.00 | 0.00 | 97 | 1007.6 |
| 20260506111454 | 56 | 192 | 11.0 | 21.0 | 0.00 | 0.00 | 0.00 | 97 | 1007.5 |
| 20260506110951 | 56 | 191 | 9.0 | 24.0 | 0.00 | 0.00 | 0.00 | 97 | 1007.7 |
| 20260506110449 | 55 | 185 | 4.0 | 18.0 | 0.00 | 0.00 | 0.00 | 98 | 1008.1 |
| 20260506105945 | 55 | 176 | 8.0 | 16.0 | 0.00 | 0.00 | 0.00 | 98 | 1007.9 |
| 20260506105442 | 55 | 207 | 14.0 | 16.0 | 0.00 | 0.00 | 0.00 | 98 | 1007.7 |
| 20260506104939 | 55 | 200 | 5.0 | 14.0 | 0.00 | 0.00 | 0.00 | 98 | 1007.7 |
| 20260506104437 | 55 | 186 | 11.0 | 17.0 | 0.00 | 0.00 | 0.00 | 98 | 1007.5 |
| 20260506103935 | 55 | 187 | 12.0 | 19.0 | 0.00 | 0.00 | 0.00 | 98 | 1007.3 |
| 20260506103432 | 55 | 181 | 8.0 | 16.0 | 0.00 | 0.00 | 0.00 | 98 | 1007.6 |
| 20260506102929 | 55 | 180 | 15.0 | 25.0 | 0.00 | 0.00 | 0.00 | 98 | 1007.4 |
| 20260506102427 | 55 | 214 | 8.0 | 28.0 | 0.00 | 0.00 | 0.00 | 98 | 1007.7 |
| 20260506101924 | 55 | 210 | 12.0 | 20.0 | 0.00 | 0.00 | 0.00 | 98 | 1007.3 |
| 20260506101420 | 55 | 201 | 8.0 | 19.0 | 0.00 | 0.00 | 0.00 | 98 | 1007.2 |
| 20260506100918 | 55 | 200 | 11.0 | 18.0 | 0.00 | 0.00 | 0.00 | 98 | 1007.5 |
| 20260506100416 | 55 | 181 | 7.0 | 22.0 | 0.00 | 0.00 | 0.00 | 98 | 1007.2 |
| 20260506095913 | 55 | 205 | 12.0 | 20.0 | 0.00 | 0.00 | 0.00 | 98 | 1007.3 |
| 20260506095412 | 55 | 197 | 7.0 | 21.0 | 0.00 | 0.00 | 0.00 | 98 | 1007.1 |
| 20260506094908 | 55 | 214 | 12.0 | 30.0 | 0.00 | 0.00 | 0.00 | 98 | 1007.3 |
| 20260506094407 | 55 | 168 | 11.0 | 18.0 | 0.00 | 0.00 | 0.00 | 98 | 1007.3 |
| 20260506093904 | 55 | 211 | 11.0 | 19.0 | 0.00 | 0.00 | 0.00 | 98 | 1007.4 |
| 20260506093401 | 55 | 188 | 13.0 | 21.0 | 0.00 | 0.00 | 0.00 | 98 | 1007.4 |
| 20260506092859 | 55 | 176 | 12.0 | 26.0 | 0.00 | 0.00 | 0.00 | 98 | 1007.4 |
| 20260506092357 | 55 | 198 | 7.0 | 19.0 | 0.00 | 0.00 | 0.00 | 98 | 1007.5 |
| 20260506091853 | 55 | 215 | 7.0 | 20.0 | 0.00 | 0.00 | 0.00 | 98 | 1007.4 |
| 20260506091351 | 55 | 197 | 12.0 | 18.0 | 0.00 | 0.00 | 0.00 | 98 | 1007.4 |
| 20260506090848 | 55 | 209 | 10.0 | 20.0 | 0.00 | 0.00 | 0.00 | 98 | 1007.6 |
| 20260506090345 | 55 | 185 | 14.0 | 25.0 | 0.00 | 0.00 | 0.00 | 98 | 1007.6 |
| 20260506085842 | 55 | 202 | 9.0 | 20.0 | 0.00 | 0.00 | 0.00 | 98 | 1007.6 |
| 20260506085338 | 55 | 196 | 11.0 | 25.0 | 0.00 | 0.00 | 0.00 | 98 | 1007.7 |
| 20260506084835 | 55 | 208 | 12.0 | 20.0 | 0.00 | 0.00 | 0.00 | 98 | 1007.6 |
| 20260506084332 | 55 | 189 | 9.0 | 20.0 | 0.00 | 0.00 | 0.00 | 98 | 1007.6 |
| 20260506083828 | 55 | 177 | 7.0 | 21.0 | 0.00 | 0.00 | 0.00 | 98 | 1007.8 |
| 20260506083326 | 55 | 211 | 9.0 | 16.0 | 0.00 | 0.00 | 0.00 | 98 | 1007.8 |
| 20260506082823 | 55 | 183 | 5.0 | 15.0 | 0.00 | 0.00 | 0.00 | 97 | 1007.7 |
| 20260506082320 | 55 | 203 | 10.0 | 15.0 | 0.00 | 0.00 | 0.00 | 97 | 1007.6 |
| 20260506081816 | 55 | 219 | 8.0 | 21.0 | 0.00 | 0.00 | 0.00 | 97 | 1007.8 |
| 20260506081314 | 55 | 194 | 9.0 | 16.0 | 0.00 | 0.00 | 0.00 | 97 | 1007.9 |
| 20260506080812 | 55 | 193 | 8.0 | 20.0 | 0.00 | 0.00 | 0.00 | 97 | 1007.8 |
| 20260506080307 | 55 | 202 | 14.0 | 19.0 | 0.00 | 0.00 | 0.00 | 97 | 1007.7 |
| 20260506073251 | 55 | 201 | 6.0 | 16.0 | 0.00 | 0.00 | 0.00 | 96 | 1008.0 |
| 20260506072749 | 55 | 204 | 9.0 | 20.0 | 0.00 | 0.00 | 0.00 | 96 | 1007.9 |
| 20260506072246 | 55 | 206 | 6.0 | 20.0 | 0.00 | 0.00 | 0.00 | 96 | 1008.2 |
| 20260506071744 | 55 | 184 | 10.0 | 14.0 | 0.00 | 0.00 | 0.00 | 96 | 1007.9 |
| 20260506071241 | 55 | 214 | 13.0 | 18.0 | 0.00 | 0.00 | 0.00 | 96 | 1008.1 |
| 20260506070738 | 55 | 209 | 9.0 | 21.0 | 0.00 | 0.00 | 0.00 | 96 | 1008.1 |
| 20260506070235 | 55 | 193 | 11.0 | 20.0 | 0.00 | 0.00 | 0.00 | 96 | 1007.9 |
| 20260506062212 | 55 | 173 | 7.0 | 19.0 | 0.00 | 0.00 | 0.00 | 95 | 1008.1 |
| 20260506061708 | 55 | 186 | 24.0 | 24.0 | 0.00 | 0.00 | 0.00 | 95 | 1008.1 |
| 20260506061206 | 55 | 172 | 7.0 | 20.0 | 0.00 | 0.00 | 0.00 | 95 | 1008.2 |
| 20260506060705 | 56 | 196 | 15.0 | 24.0 | 0.00 | 0.00 | 0.00 | 95 | 1008.1 |
| 20260506060201 | 56 | 195 | 14.0 | 22.0 | 0.00 | 0.00 | 0.00 | 95 | 1007.8 |
| 20260506051133 | 56 | 204 | 18.0 | 22.0 | 0.00 | 0.00 | 0.00 | 93 | 1008.3 |
| 20260506050631 | 57 | 183 | 7.0 | 23.0 | 0.00 | 0.00 | 0.00 | 92 | 1008.0 |
| 20260506050128 | 57 | 191 | 10.0 | 19.0 | 0.00 | 0.00 | 0.00 | 92 | 1008.2 |
| 20260506045121 | 57 | 181 | 14.0 | 19.0 | 0.00 | 0.00 | 0.00 | 92 | 1008.0 |
| 20260506044619 | 57 | 220 | 17.0 | 27.0 | 0.00 | 0.00 | 0.00 | 92 | 1008.3 |
| 20260506044116 | 57 | 206 | 8.0 | 24.0 | 0.00 | 0.00 | 0.00 | 92 | 1008.3 |
| 20260506043613 | 57 | 191 | 11.0 | 27.0 | 0.00 | 0.00 | 0.00 | 92 | 1008.1 |
| 20260506043111 | 57 | 187 | 5.0 | 20.0 | 0.00 | 0.00 | 0.00 | 93 | 1008.2 |
| 20260506042610 | 56 | 194 | 15.0 | 21.0 | 0.00 | 0.00 | 0.00 | 92 | 1008.5 |
| 20260506042107 | 57 | 227 | 11.0 | 19.0 | 0.00 | 0.00 | 0.00 | 93 | 1008.2 |
| 20260506041606 | 57 | 207 | 5.0 | 22.0 | 0.00 | 0.00 | 0.00 | 92 | 1008.3 |
| 20260506041102 | 57 | 190 | 15.0 | 22.0 | 0.00 | 0.00 | 0.00 | 92 | 1008.5 |
| 20260506040600 | 57 | 187 | 12.0 | 23.0 | 0.00 | 0.00 | 0.00 | 92 | 1008.4 |
| 20260506040056 | 57 | 189 | 9.0 | 23.0 | 0.00 | 0.00 | 0.00 | 92 | 1008.4 |
| 20260506035553 | 57 | 215 | 7.0 | 23.0 | 0.00 | 0.00 | 0.00 | 91 | 1008.5 |
| 20260506035050 | 57 | 188 | 11.0 | 23.0 | 0.00 | 0.00 | 0.00 | 91 | 1008.5 |
| 20260506034547 | 57 | 197 | 9.0 | 25.0 | 0.00 | 0.00 | 0.00 | 91 | 1008.2 |
| 20260506034044 | 57 | 190 | 19.0 | 28.0 | 0.00 | 0.00 | 0.00 | 91 | 1008.2 |
| 20260506033541 | 57 | 178 | 10.0 | 26.0 | 0.00 | 0.00 | 0.00 | 91 | 1008.2 |
| 20260506033038 | 57 | 174 | 5.0 | 26.0 | 0.00 | 0.00 | 0.00 | 90 | 1008.1 |
| 20260506032536 | 57 | 190 | 11.0 | 22.0 | 0.00 | 0.00 | 0.00 | 90 | 1008.2 |
| 20260506032032 | 57 | 187 | 9.0 | 32.0 | 0.00 | 0.00 | 0.00 | 90 | 1008.1 |
| 20260506031530 | 57 | 211 | 20.0 | 28.0 | 0.00 | 0.00 | 0.00 | 90 | 1008.4 |
| 20260506031027 | 57 | 218 | 10.0 | 20.0 | 0.00 | 0.00 | 0.00 | 90 | 1008.1 |
| 20260506030525 | 57 | 174 | 10.0 | 35.0 | 0.00 | 0.00 | 0.00 | 90 | 1008.1 |
| 20260506030022 | 57 | 188 | 10.0 | 22.0 | 0.00 | 0.00 | 0.00 | 90 | 1008.2 |
| 20260506025519 | 58 | 199 | 9.0 | 22.0 | 0.00 | 0.00 | 0.00 | 90 | 1008.3 |
| 20260506025015 | 58 | 213 | 16.0 | 19.0 | 0.00 | 0.00 | 0.00 | 90 | 1008.2 |
| 20260506024512 | 58 | 203 | 10.0 | 21.0 | 0.00 | 0.00 | 0.00 | 91 | 1008.5 |
| 20260506024008 | 57 | 201 | 5.0 | 24.0 | 0.00 | 0.00 | 0.00 | 91 | 1008.5 |
| 20260506023504 | 58 | 208 | 8.0 | 25.0 | 0.00 | 0.00 | 0.00 | 91 | 1008.4 |
| 20260506023001 | 58 | 196 | 6.0 | 19.0 | 0.00 | 0.00 | 0.00 | 90 | 1008.4 |
| 20260506022459 | 58 | 196 | 10.0 | 22.0 | 0.00 | 0.00 | 0.00 | 90 | 1008.5 |
| 20260506021956 | 58 | 189 | 9.0 | 23.0 | 0.00 | 0.00 | 0.00 | 90 | 1008.3 |
| 20260506021454 | 58 | 206 | 19.0 | 22.0 | 0.00 | 0.00 | 0.00 | 90 | 1008.5 |
| 20260506020951 | 58 | 141 | 10.0 | 22.0 | 0.00 | 0.00 | 0.00 | 90 | 1008.5 |
| 20260506020448 | 58 | 209 | 15.0 | 25.0 | 0.00 | 0.00 | 0.00 | 90 | 1008.4 |
| 20260506015945 | 58 | 215 | 6.0 | 19.0 | 0.00 | 0.00 | 0.00 | 90 | 1008.4 |
| 20260506015443 | 58 | 214 | 5.0 | 22.0 | 0.00 | 0.00 | 0.00 | 89 | 1008.3 |
| 20260506014940 | 58 | 200 | 7.0 | 22.0 | 0.00 | 0.00 | 0.00 | 89 | 1008.3 |
| 20260506014437 | 58 | 216 | 9.0 | 23.0 | 0.00 | 0.00 | 0.00 | 89 | 1008.2 |
| 20260506013933 | 58 | 198 | 11.0 | 24.0 | 0.00 | 0.00 | 0.00 | 89 | 1008.0 |
| 20260506013431 | 58 | 191 | 13.0 | 18.0 | 0.00 | 0.00 | 0.00 | 88 | 1008.1 |
| 20260506012927 | 58 | 205 | 13.0 | 24.0 | 0.00 | 0.00 | 0.00 | 88 | 1008.1 |
| 20260506012424 | 58 | 212 | 17.0 | 24.0 | 0.00 | 0.00 | 0.00 | 88 | 1008.0 |
| 20260506011921 | 58 | 206 | 6.0 | 18.0 | 0.00 | 0.00 | 0.00 | 89 | 1008.1 |
| 20260506011418 | 58 | 207 | 8.0 | 21.0 | 0.00 | 0.00 | 0.00 | 89 | 1008.1 |
| 20260506010915 | 58 | 180 | 13.0 | 32.0 | 0.00 | 0.00 | 0.00 | 88 | 1008.1 |
| 20260506010414 | 58 | 170 | 5.0 | 24.0 | 0.00 | 0.00 | 0.00 | 87 | 1008.1 |
| 20260506005909 | 59 | 200 | 12.0 | 22.0 | 0.00 | 0.00 | 0.00 | 87 | 1007.9 |
| 20260506005408 | 59 | 223 | 11.0 | 29.0 | 0.00 | 0.00 | 0.00 | 87 | 1007.8 |
| 20260506004902 | 59 | 187 | 9.0 | 24.0 | 0.00 | 0.00 | 0.00 | 86 | 1007.7 |
| 20260506004401 | 59 | 196 | 14.0 | 26.0 | 0.00 | 0.00 | 0.00 | 87 | 1007.9 |
| 20260506003856 | 59 | 211 | 12.0 | 28.0 | 0.00 | 0.00 | 0.00 | 86 | 1007.6 |
| 20260506003353 | 59 | 203 | 9.0 | 20.0 | 0.00 | 0.00 | 0.00 | 86 | 1007.5 |
| 20260506002849 | 59 | 211 | 17.0 | 22.0 | 0.00 | 0.00 | 0.00 | 86 | 1007.7 |
| 20260506002345 | 60 | 193 | 9.0 | 22.0 | 0.00 | 0.00 | 0.00 | 85 | 1007.3 |
| 20260506001841 | 60 | 214 | 14.0 | 30.0 | 0.00 | 0.00 | 0.00 | 83 | 1007.4 |
| 20260506001338 | 60 | 190 | 28.0 | 28.0 | 0.00 | 0.00 | 0.00 | 83 | 1007.3 |
| 20260506000835 | 60 | 208 | 4.0 | 27.0 | 0.00 | 0.00 | 0.00 | 84 | 1007.4 |
| 20260506000333 | 59 | 211 | 7.0 | 26.0 | 0.00 | 0.00 | 0.00 | 85 | 1007.1 |
| 20260505235830 | 59 | 190 | 12.0 | 26.0 | 0.00 | 0.00 | 0.00 | 86 | 1007.0 |
| 20260505235327 | 59 | 204 | 11.0 | 24.0 | 0.00 | 0.00 | 0.00 | 86 | 1007.1 |
| 20260505234824 | 60 | 167 | 13.0 | 23.0 | 0.00 | 0.00 | 0.00 | 85 | 1007.0 |
| 20260505234322 | 59 | 186 | 10.0 | 23.0 | 0.00 | 0.00 | 0.00 | 86 | 1007.1 |
| 20260505233819 | 59 | 183 | 9.0 | 24.0 | 0.00 | 0.00 | 0.00 | 85 | 1006.6 |
| 20260505233317 | 60 | 209 | 14.0 | 25.0 | 0.00 | 0.00 | 0.00 | 85 | 1006.5 |
| 20260505232813 | 60 | 190 | 12.0 | 36.0 | 0.00 | 0.00 | 0.00 | 85 | 1006.6 |
| 20260505232311 | 59 | 188 | 29.0 | 33.0 | 0.00 | 0.00 | 0.00 | 85 | 1006.4 |
| 20260505231808 | 59 | 199 | 11.0 | 23.0 | 0.00 | 0.00 | 0.00 | 86 | 1006.5 |
| 20260505231306 | 59 | 197 | 21.0 | 23.0 | 0.00 | 0.00 | 0.00 | 86 | 1006.6 |
| 20260505230804 | 59 | 196 | 8.0 | 29.0 | 0.00 | 0.00 | 0.00 | 86 | 1006.5 |
| 20260505230300 | 59 | 182 | 10.0 | 23.0 | 0.00 | 0.00 | 0.00 | 85 | 1006.4 |
| 20260505225757 | 60 | 191 | 17.0 | 31.0 | 0.00 | 0.00 | 0.00 | 85 | 1006.4 |
| 20260505225254 | 60 | 167 | 5.0 | 27.0 | 0.00 | 0.00 | 0.00 | 85 | 1006.4 |
| 20260505224749 | 60 | 201 | 12.0 | 24.0 | 0.00 | 0.00 | 0.00 | 85 | 1006.5 |
| 20260505224247 | 60 | 180 | 10.0 | 26.0 | 0.00 | 0.00 | 0.00 | 85 | 1006.2 |
| 20260505223744 | 60 | 200 | 11.0 | 30.0 | 0.00 | 0.00 | 0.00 | 85 | 1006.2 |
| 20260505223241 | 60 | 180 | 17.0 | 29.0 | 0.00 | 0.00 | 0.00 | 85 | 1006.1 |
| 20260505222737 | 60 | 208 | 14.0 | 26.0 | 0.00 | 0.00 | 0.00 | 85 | 1005.9 |
| 20260505222233 | 60 | 191 | 11.0 | 24.0 | 0.00 | 0.00 | 0.00 | 86 | 1006.3 |
| 20260505221730 | 60 | 189 | 10.0 | 28.0 | 0.00 | 0.00 | 0.00 | 85 | 1006.3 |
| 20260505221227 | 60 | 198 | 6.0 | 34.0 | 0.00 | 0.00 | 0.00 | 84 | 1006.2 |
| 20260505220724 | 60 | 180 | 15.0 | 25.0 | 0.00 | 0.00 | 0.00 | 84 | 1006.1 |
| 20260505220221 | 60 | 192 | 7.0 | 29.0 | 0.00 | 0.00 | 0.00 | 84 | 1005.8 |
| 20260505215720 | 60 | 202 | 7.0 | 26.0 | 0.00 | 0.00 | 0.00 | 83 | 1006.2 |
| 20260505215217 | 61 | 187 | 10.0 | 26.0 | 0.00 | 0.00 | 0.00 | 84 | 1006.0 |
| 20260505214714 | 60 | 197 | 15.0 | 32.0 | 0.00 | 0.00 | 0.00 | 83 | 1006.0 |
| 20260505214212 | 61 | 184 | 5.0 | 27.0 | 0.00 | 0.00 | 0.00 | 83 | 1006.3 |
| 20260505213709 | 61 | 200 | 15.0 | 27.0 | 0.00 | 0.00 | 0.00 | 83 | 1006.1 |
| 20260505213206 | 61 | 167 | 6.0 | 25.0 | 0.00 | 0.00 | 0.00 | 83 | 1005.8 |
| 20260505212702 | 61 | 216 | 6.0 | 26.0 | 0.00 | 0.00 | 0.00 | 83 | 1005.8 |
| 20260505212159 | 61 | 201 | 17.0 | 29.0 | 0.00 | 0.00 | 0.00 | 84 | 1005.5 |
| 20260505211656 | 61 | 192 | 8.0 | 23.0 | 0.00 | 0.00 | 0.00 | 83 | 1005.8 |
| 20260505211153 | 61 | 210 | 15.0 | 27.0 | 0.00 | 0.00 | 0.00 | 83 | 1006.0 |
| 20260505210650 | 61 | 207 | 13.0 | 23.0 | 0.00 | 0.00 | 0.00 | 84 | 1005.6 |
| 20260505210147 | 60 | 202 | 13.0 | 28.0 | 0.00 | 0.00 | 0.00 | 84 | 1005.6 |
| 20260505205644 | 60 | 208 | 12.0 | 30.0 | 0.00 | 0.00 | 0.00 | 84 | 1005.9 |
| 20260505205142 | 61 | 198 | 10.0 | 19.0 | 0.00 | 0.00 | 0.00 | 83 | 1005.5 |
| 20260505204639 | 60 | 203 | 16.0 | 25.0 | 0.00 | 0.00 | 0.00 | 84 | 1005.8 |
| 20260505204137 | 61 | 207 | 8.0 | 26.0 | 0.00 | 0.00 | 0.00 | 84 | 1005.5 |
| 20260505203633 | 60 | 201 | 17.0 | 26.0 | 0.00 | 0.00 | 0.00 | 84 | 1005.6 |
| 20260505203130 | 61 | 198 | 7.0 | 21.0 | 0.00 | 0.00 | 0.00 | 84 | 1005.8 |
| 20260505202626 | 61 | 198 | 7.0 | 30.0 | 0.00 | 0.00 | 0.00 | 84 | 1005.6 |
| 20260505202122 | 61 | 190 | 9.0 | 24.0 | 0.00 | 0.00 | 0.00 | 84 | 1005.8 |
| 20260505201619 | 60 | 208 | 14.0 | 26.0 | 0.00 | 0.00 | 0.00 | 84 | 1005.8 |
| 20260505201117 | 61 | 204 | 9.0 | 28.0 | 0.00 | 0.00 | 0.00 | 84 | 1005.9 |
| 20260505200614 | 61 | 193 | 17.0 | 30.0 | 0.00 | 0.00 | 0.00 | 85 | 1005.8 |
| 20260505200111 | 61 | 211 | 11.0 | 24.0 | 0.00 | 0.00 | 0.00 | 85 | 1005.8 |
| 20260505195608 | 61 | 190 | 23.0 | 24.0 | 0.00 | 0.00 | 0.00 | 84 | 1006.0 |
| 20260505195105 | 60 | 190 | 7.0 | 24.0 | 0.00 | 0.00 | 0.00 | 85 | 1006.2 |
| 20260505194602 | 61 | 202 | 12.0 | 24.0 | 0.00 | 0.00 | 0.00 | 84 | 1006.1 |
| 20260505194058 | 60 | 200 | 8.0 | 27.0 | 0.00 | 0.00 | 0.00 | 85 | 1006.1 |
| 20260505193555 | 61 | 218 | 5.0 | 22.0 | 0.00 | 0.00 | 0.00 | 85 | 1006.3 |
| 20260505193052 | 61 | 192 | 6.0 | 16.0 | 0.00 | 0.00 | 0.00 | 84 | 1006.3 |
| 20260505192551 | 61 | 199 | 8.0 | 17.0 | 0.00 | 0.00 | 0.00 | 84 | 1006.5 |
| 20260505192048 | 61 | 180 | 10.0 | 23.0 | 0.00 | 0.00 | 0.00 | 85 | 1006.5 |
| 20260505191546 | 61 | 211 | 12.0 | 23.0 | 0.00 | 0.00 | 0.00 | 84 | 1006.8 |
| 20260505191044 | 61 | 192 | 9.0 | 22.0 | 0.00 | 0.00 | 0.00 | 85 | 1006.7 |
| 20260505190543 | 61 | 214 | 9.0 | 21.0 | 0.00 | 0.00 | 0.00 | 85 | 1006.9 |
| 20260505190040 | 61 | 200 | 11.0 | 18.0 | 0.00 | 0.00 | 0.00 | 84 | 1006.9 |
| 20260505185537 | 61 | 188 | 10.0 | 21.0 | 0.00 | 0.00 | 0.00 | 85 | 1007.2 |
| 20260505185033 | 61 | 219 | 5.0 | 25.0 | 0.00 | 0.00 | 0.00 | 86 | 1007.2 |
| 20260505184530 | 61 | 167 | 12.0 | 19.0 | 0.00 | 0.00 | 0.00 | 85 | 1007.2 |
| 20260505184027 | 61 | 190 | 5.0 | 18.0 | 0.00 | 0.00 | 0.00 | 84 | 1007.3 |
| 20260505183524 | 61 | 190 | 9.0 | 17.0 | 0.00 | 0.00 | 0.00 | 85 | 1007.5 |
| 20260505183021 | 61 | 193 | 8.0 | 17.0 | 0.00 | 0.00 | 0.00 | 85 | 1007.7 |
| 20260505182517 | 61 | 224 | 9.0 | 17.0 | 0.00 | 0.00 | 0.00 | 85 | 1007.5 |
| 20260505182014 | 61 | 211 | 10.0 | 14.0 | 0.00 | 0.00 | 0.00 | 85 | 1007.8 |
| 20260505181511 | 61 | 227 | 8.0 | 12.0 | 0.00 | 0.00 | 0.00 | 84 | 1007.7 |
| 20260505181008 | 60 | 194 | 7.0 | 17.0 | 0.00 | 0.00 | 0.00 | 86 | 1007.7 |
| 20260505180504 | 61 | 227 | 3.0 | 15.0 | 0.00 | 0.00 | 0.00 | 85 | 1008.0 |
| 20260505180001 | 61 | 211 | 7.0 | 13.0 | 0.00 | 0.00 | 0.00 | 86 | 1007.9 |
| 20260505175457 | 61 | 176 | 7.0 | 13.0 | 0.00 | 0.00 | 0.00 | 86 | 1007.9 |
| 20260505174954 | 60 | 193 | 4.0 | 13.0 | 0.00 | 0.00 | 0.00 | 86 | 1008.1 |
| 20260505174451 | 61 | 186 | 4.0 | 11.0 | 0.00 | 0.00 | 0.00 | 85 | 1008.3 |
| 20260505173947 | 61 | 171 | 4.0 | 15.0 | 0.00 | 0.00 | 0.00 | 86 | 1008.4 |
| 20260505173443 | 62 | 189 | 4.0 | 11.0 | 0.00 | 0.00 | 0.00 | 85 | 1008.4 |
| 20260505172941 | 62 | 187 | 5.0 | 13.0 | 0.00 | 0.00 | 0.00 | 85 | 1008.1 |
| 20260505172439 | 61 | 180 | 6.0 | 11.0 | 0.00 | 0.00 | 0.00 | 85 | 1008.1 |
| 20260505171938 | 61 | 179 | 6.0 | 10.0 | 0.00 | 0.00 | 0.00 | 86 | 1008.0 |
| 20260505171435 | 60 | 189 | 9.0 | 11.0 | 0.00 | 0.00 | 0.00 | 87 | 1008.4 |
| 20260505170932 | 60 | 210 | 10.0 | 15.0 | 0.00 | 0.00 | 0.00 | 87 | 1008.3 |
| 20260505170428 | 60 | 184 | 5.0 | 12.0 | 0.00 | 0.00 | 0.00 | 87 | 1008.3 |
| 20260505165924 | 60 | 194 | 7.0 | 15.0 | 0.00 | 0.00 | 0.00 | 87 | 1008.3 |
| 20260505165420 | 60 | 179 | 4.0 | 14.0 | 0.00 | 0.00 | 0.00 | 88 | 1008.6 |
| 20260505164915 | 60 | 161 | 5.0 | 18.0 | 0.00 | 0.00 | 0.00 | 87 | 1008.6 |
| 20260505164413 | 60 | 168 | 7.0 | 17.0 | 0.00 | 0.00 | 0.00 | 87 | 1008.5 |
| 20260505163911 | 61 | 185 | 5.0 | 11.0 | 0.00 | 0.00 | 0.00 | 86 | 1008.7 |
| 20260505163409 | 61 | 207 | 7.0 | 11.0 | 0.00 | 0.00 | 0.00 | 86 | 1008.5 |
| 20260505162908 | 60 | 191 | 8.0 | 13.0 | 0.00 | 0.00 | 0.00 | 86 | 1008.4 |
| 20260505162403 | 60 | 167 | 6.0 | 14.0 | 0.00 | 0.00 | 0.00 | 86 | 1008.6 |
| 20260505161900 | 60 | 205 | 9.0 | 17.0 | 0.00 | 0.00 | 0.00 | 86 | 1008.5 |
| 20260505161357 | 61 | 192 | 3.0 | 10.0 | 0.00 | 0.00 | 0.00 | 86 | 1008.7 |
| 20260505160854 | 61 | 196 | 6.0 | 16.0 | 0.00 | 0.00 | 0.00 | 86 | 1008.4 |
| 20260505160352 | 61 | 193 | 5.0 | 12.0 | 0.00 | 0.00 | 0.00 | 86 | 1008.7 |
| 20260505153331 | 61 | 218 | 4.0 | 12.0 | 0.00 | 0.00 | 0.00 | 87 | 1008.9 |
| 20260505152828 | 61 | 180 | 5.0 | 10.0 | 0.00 | 0.00 | 0.00 | 86 | 1008.8 |
| 20260505152325 | 61 | 171 | 5.0 | 12.0 | 0.00 | 0.00 | 0.00 | 86 | 1008.8 |
| 20260505151820 | 60 | 180 | 8.0 | 11.0 | 0.00 | 0.00 | 0.00 | 87 | 1008.9 |
| 20260505151317 | 60 | 184 | 6.0 | 13.0 | 0.00 | 0.00 | 0.00 | 88 | 1008.9 |
| 20260505150814 | 60 | 205 | 8.0 | 12.0 | 0.00 | 0.00 | 0.00 | 87 | 1009.1 |
| 20260505150311 | 60 | 208 | 6.0 | 13.0 | 0.00 | 0.00 | 0.00 | 88 | 1009.3 |
| 20260505140241 | 59 | 204 | 12.0 | 14.0 | 0.00 | 0.00 | 0.00 | 90 | 1008.9 |